Location: Newark
(25.6108°S, 54.5803°W)
Time: 10:27:44
(UTC+00:00)

Transit 2A - Pass Details

Date: 02 November 2020
Orbit: 595 x 964 km, 66.7° (Epoch: 28 November)

Event Time Altitude Azimuth Distance (km) Brightness Sun altitude
Rises 00:01:30 0° 184° (S) 3,229 9.7 -26.7°
Reaches altitude 10° 00:04:25 10° 167° (SSE) 2,368 8.8 -27.2°
Enters shadow 00:06:53 19° 142° (SE) 1,886 7.9 -27.7°
